Regional Weather Roundup
Issued by NWS Sioux Falls, SD

Home | Current Version | Previous Version | Graphics & Text | Print | Product List | Glossary On
Versions: 1 2 3 4 5 6 7 8 9 10 11 12 13 14 15 16 17 18 19 20 21 22 23 24 25 26 27 28 29 30 31 32 33 34 35 36 37 38 39 40 41 42 43 44 45 46 47 48 49 50
000
ASUS43 KFSD 291710
RWRFSD

WEATHER ROUNDUP FOR SE SOUTH DAKOTA/SW MINNESOTA/NW IOWA
NATIONAL WEATHER SERVICE SIOUX FALLS SD
1200 PM CDT MON MAY 29 2017

NOTE: "FAIR" INDICATES FEW OR NO CLOUDS BELOW 12,000 FEET WITH NO
SIGNIFICANT WEATHER AND OR OBSTRUCTIONS TO VISIBILITY.


SDZ038>040-050-052>070-291800-
SOUTHEAST SOUTH DAKOTA

CITY           SKY/WX    TMP DP  RH WIND       PRES   REMARKS
BROOKINGS      CLOUDY    56  48  74 NW18      29.97R
CHAMBERLAIN    CLOUDY    65  43  43 NW20G30   30.06S
HURON          CLOUDY    57  44  62 NW17G26   30.02R
MADISON        PTSUNNY   55  46  71 NW18G28   29.99R
MITCHELL       CLOUDY    63  44  50 NW20G28   30.03R
SIOUX FALLS    PTSUNNY   62  47  57 NW17G31   29.98R
WINNER         FAIR      65  43  44 NW20G31   30.09S
YANKTON        MOSUNNY   66  44  45 W25G31    30.02S
$$

MNZ071-072-080-081-089-090-097-098-291800-
SOUTHWEST MINNESOTA

CITY           SKY/WX    TMP DP  RH WIND       PRES   REMARKS
FAIRMONT       CLOUDY    61  45  55 W17       29.90R
JACKSON        CLOUDY    61  46  59 W21       29.93R
LUVERNE        CLOUDY    59  43  55 NW22      29.97S
MARSHALL       CLOUDY    57  46  67 NW14G23   29.93R
MONTEVIDEO     CLOUDY    61  48  63 N14G22    29.90R
PIPESTONE      PTSUNNY   57  45  62 NW14      29.96R
REDWOOD FALLS  CLOUDY    59  46  62 NW22G31   29.89S
TRACY          CLOUDY    60  48  65 NW15      29.94R
WINDOM         MOSUNNY   57  46  67 W20       29.92R
WORTHINGTON    CLOUDY    58  46  64 W17G25    29.95R
$$

IAZ001>003-012>014-020>022-031-032-NEZ013-014-SDZ071-291800-
NORTHWEST IOWA

CITY           SKY/WX    TMP DP  RH WIND       PRES   REMARKS
CHEROKEE       MOSUNNY   64  44  47 NW13G32   29.96S
DENISON        SUNNY     68  41  37 NW21G31   29.99S
ESTHERVILLE    CLOUDY    61  46  57 NW22      29.91R
LE MARS        MOSUNNY   66  45  45 NW24G30   29.99S
ORANGE CITY    MOSUNNY   64  46  52 NW24G33   29.97S
SHELDON        PTSUNNY   63  43  48 NW22G30   29.95R
SIOUX CITY     SUNNY     69  44  40 NW21G32   29.99S
SPENCER        PTSUNNY   64  44  48 NW22G35   29.94R
STORM LAKE       N/A     66  41  39 W24G35    29.95S
$$

ABBREVIATIONS USED IN REMARKS
   TC - TEMPERATURE IN CELSIUS
  WCI - WIND CHILL INDEX
   HX - HEAT INDEX
  VSB - VISIBILITY




USA.gov is the U.S. government's official web portal to all federal, state and local government web resources and services.